Weather History for KSLO - January, 2014

Change the Weather History Date:

Sunday, January 19, 2014

  Actual Average Record
Temperature  
Mean Temperature 34 °F -  
Max Temperature 44 °F 36 °F 62 °F (1974)
Min Temperature 24 °F 18 °F -10 °F (1977)
Degree Days  
Heating Degree Days 31    
Moisture  
Dew Point 26 °F    
Average Humidity 72    
Maximum Humidity 87    
Minimum Humidity 55    
Precipitation  
Precipitation 0.00 in - - ()
Sea Level Pressure  
Sea Level Pressure 29.93 in    
Wind  
Wind Speed 15 mph (SW)    
Max Wind Speed 24 mph    
Max Gust Speed 32 mph    
Visibility 10 miles    
Events      
Averages and records for this station are not official NWS values.
T = Trace of Precipitation, MM = Missing Value Source: NWS Daily Summary

Daily Weather History Graph

Daily Weather History Graph

Search for Another Location

Airport or City:

Trip Planner

Search our weather history database for the weather conditions in past years. The results will help you decide how hot, cold, wet, or windy it might be!

Date:

Astronomy

Jan. 19, 2014 Rise Set
Actual Time 7:10 AM CST 5:03 PM CST
Civil Twilight 6:41 AM CST 5:31 PM CST
Nautical Twilight 6:09 AM CST 6:04 PM CST
Astronomical Twilight 5:37 AM CST 6:36 PM CST
Moon 8:38 PM CST (1/19) 8:43 AM CST (1/19)
Length of Visible Light 10h 50m
Length of Day
9h 52m
Waning Gibbous, 89% of the Moon is Illuminated
Jan 19
Waning Gibbous
Jan 23
Last Quarter
Jan 30
New
Feb 6
First Quarter
Feb 14
Full

Hourly Weather History & Observations

Time (CST) Temp. Windchill Dew Point Humidity Pressure Visibility Wind Dir Wind Speed Gust Speed Precip Events Conditions
12:15 AM 31.1 °F 20.1 °F 27.5 °F 87% 29.93 in 10.0 mi NW 16.1 mph 19.6 mph N/A   Overcast
12:35 AM 29.3 °F 15.3 °F 25.3 °F 85% 29.95 in 10.0 mi NW 24.2 mph 32.2 mph N/A   Overcast
12:55 AM 28.2 °F 15.5 °F 23.9 °F 84% 29.95 in 10.0 mi NNW 18.4 mph - N/A   Overcast
1:15 AM 28.0 °F 17.0 °F 23.9 °F 84% 29.96 in 10.0 mi NNW 13.8 mph - N/A   Overcast
1:35 AM 28.0 °F 16.1 °F 23.9 °F 84% 29.97 in 10.0 mi NW 16.1 mph 21.9 mph N/A   Overcast
1:55 AM 27.1 °F 15.4 °F 23.0 °F 84% 29.99 in 10.0 mi WNW 15.0 mph 21.9 mph N/A   Overcast
2:15 AM 26.1 °F 14.5 °F 21.7 °F 84% 30.00 in 10.0 mi NW 13.8 mph 23.0 mph N/A   Overcast
2:35 AM 25.7 °F 14.0 °F 21.2 °F 83% 30.00 in 10.0 mi NW 13.8 mph - N/A   Overcast
2:55 AM 25.9 °F 13.8 °F 21.0 °F 82% 30.01 in 10.0 mi NW 15.0 mph 21.9 mph N/A   Overcast
3:15 AM 26.1 °F 13.6 °F 21.4 °F 82% 30.01 in 10.0 mi NW 16.1 mph 21.9 mph N/A   Overcast
3:35 AM 26.2 °F 15.8 °F 21.6 °F 82% 30.02 in 10.0 mi WNW 11.5 mph - N/A   Overcast
3:55 AM 26.2 °F 15.2 °F 21.2 °F 81% 30.03 in 10.0 mi NW 12.7 mph 21.9 mph N/A   Overcast
4:15 AM 26.2 °F 15.2 °F 21.7 °F 83% 30.03 in 10.0 mi WNW 12.7 mph 18.4 mph N/A   Overcast
4:35 AM 25.7 °F 15.1 °F 21.0 °F 82% 30.04 in 10.0 mi WNW 11.5 mph - N/A   Overcast
4:55 AM 25.7 °F 14.0 °F 21.9 °F 86% 30.03 in 10.0 mi West 13.8 mph 19.6 mph N/A   Overcast
5:15 AM 24.8 °F 14.0 °F 20.3 °F 83% 30.04 in 10.0 mi WNW 11.5 mph 20.7 mph N/A   Overcast
5:35 AM 25.2 °F 16.5 °F 20.8 °F 84% 30.03 in 10.0 mi West 8.1 mph - N/A   Overcast
5:55 AM 25.7 °F 18.0 °F 21.6 °F 84% 30.03 in 10.0 mi West 6.9 mph - N/A   Overcast
6:15 AM 26.2 °F 16.4 °F 21.9 °F 84% 30.04 in 10.0 mi West 10.4 mph - N/A   Overcast
6:35 AM 26.1 °F 19.4 °F 21.7 °F 84% 30.05 in 10.0 mi West 5.8 mph - N/A   Overcast
6:55 AM 26.1 °F 19.4 °F 21.7 °F 84% 30.04 in 10.0 mi West 5.8 mph - N/A   Overcast
7:15 AM 26.1 °F 18.4 °F 22.3 °F 86% 30.05 in 10.0 mi WSW 6.9 mph - N/A   Overcast
7:35 AM 25.7 °F 17.1 °F 21.9 °F 86% 30.05 in 10.0 mi WSW 8.1 mph - N/A   Mostly Cloudy
7:55 AM 25.5 °F 16.9 °F 21.6 °F 85% 30.05 in 10.0 mi SW 8.1 mph - N/A   Scattered Clouds
8:15 AM 25.9 °F 16.6 °F 21.7 °F 84% 30.05 in 10.0 mi SSW 9.2 mph - N/A   Clear
8:35 AM 27.0 °F 17.3 °F 22.3 °F 83% 30.05 in 10.0 mi SW 10.4 mph - N/A   Clear
8:55 AM 27.7 °F 18.2 °F 22.6 °F 81% 30.04 in 10.0 mi SW 10.4 mph - N/A   Clear
9:15 AM 28.8 °F 17.9 °F 22.8 °F 78% 30.04 in 10.0 mi SW 13.8 mph - N/A   Clear
9:35 AM 29.8 °F 19.8 °F 23.4 °F 77% 30.04 in 10.0 mi SW 12.7 mph - N/A   Clear
9:55 AM 30.7 °F 21.4 °F 23.9 °F 76% 30.04 in 10.0 mi SW 11.5 mph - N/A   Clear
10:15 AM 31.8 °F 21.4 °F 24.6 °F 75% 30.04 in 10.0 mi SW 15.0 mph - N/A   Clear
10:35 AM 32.4 °F 23.0 °F 25.2 °F 75% 30.05 in 10.0 mi SW 12.7 mph - N/A   Clear
10:55 AM 33.4 °F 23.5 °F 25.7 °F 73% 30.03 in 10.0 mi SW 15.0 mph - N/A   Clear
11:15 AM 34.7 °F 24.7 °F 26.1 °F 71% 30.03 in 10.0 mi SW 16.1 mph - N/A   Clear
11:35 AM 35.1 °F 25.5 °F 26.2 °F 70% 30.02 in 10.0 mi SW 15.0 mph - N/A   Clear
11:55 AM 36.7 °F 28.0 °F 27.3 °F 69% 30.00 in 10.0 mi SW 13.8 mph - N/A   Clear
12:15 PM 37.6 °F 28.4 °F 27.7 °F 67% 29.98 in 10.0 mi SW 16.1 mph 19.6 mph N/A   Clear
12:35 PM 38.1 °F 29.5 °F 27.3 °F 65% 29.97 in 10.0 mi SSW 15.0 mph - N/A   Clear
12:55 PM 39.4 °F 30.4 °F 28.4 °F 65% 29.95 in 10.0 mi SW 17.3 mph - N/A   Clear
1:15 PM 40.6 °F 31.4 °F 28.6 °F 62% 29.94 in 10.0 mi SW 19.6 mph - N/A   Clear
1:35 PM 41.0 °F 32.2 °F 28.8 °F 62% 29.92 in 10.0 mi SW 18.4 mph 23.0 mph N/A   Clear
1:55 PM 41.9 °F 34.6 °F 29.1 °F 61% 29.91 in 10.0 mi SW 13.8 mph - N/A   Clear
2:15 PM 42.4 °F 34.4 °F 29.3 °F 60% 29.89 in 10.0 mi SW 17.3 mph - N/A   Clear
2:35 PM 43.0 °F 35.7 °F 29.7 °F 59% 29.89 in 10.0 mi SW 15.0 mph 23.0 mph N/A   Clear
2:55 PM 43.5 °F 36.1 °F 29.5 °F 58% 29.87 in 10.0 mi South 16.1 mph 24.2 mph N/A   Clear
3:15 PM 44.1 °F 36.8 °F 29.7 °F 57% 29.86 in 10.0 mi SSW 16.1 mph 20.7 mph N/A   Clear
3:35 PM 44.1 °F 35.9 °F 28.8 °F 55% 29.86 in 10.0 mi SSW 19.6 mph 25.3 mph N/A   Clear
3:55 PM 43.9 °F 36.8 °F 28.6 °F 55% 29.86 in 10.0 mi SSW 15.0 mph - N/A   Clear
4:15 PM 43.2 °F 35.9 °F 28.6 °F 56% 29.85 in 10.0 mi SSW 15.0 mph 23.0 mph N/A   Clear
4:35 PM 42.4 °F 34.7 °F 28.4 °F 58% 29.83 in 10.0 mi South 16.1 mph 21.9 mph N/A   Clear
4:55 PM 41.4 °F 33.0 °F 28.2 °F 60% 29.82 in 10.0 mi South 17.3 mph 24.2 mph N/A   Clear
5:15 PM 40.6 °F 32.3 °F 28.0 °F 61% 29.82 in 10.0 mi South 16.1 mph 21.9 mph N/A   Clear
5:35 PM 40.5 °F 32.1 °F 27.7 °F 60% 29.81 in 10.0 mi South 16.1 mph 23.0 mph N/A   Clear
5:55 PM 40.3 °F 33.4 °F 27.7 °F 61% 29.81 in 10.0 mi South 11.5 mph - N/A   Clear
6:15 PM 39.0 °F 29.6 °F 28.6 °F 66% 29.81 in 10.0 mi South 18.4 mph 25.3 mph N/A   Clear
6:35 PM 39.2 °F 30.2 °F 28.8 °F 66% 29.81 in 10.0 mi SSW 17.3 mph - N/A   Clear
7:15 PM 39.2 °F 30.2 °F 28.6 °F 66% 29.80 in 10.0 mi SSW 17.3 mph 23.0 mph N/A   Clear
7:35 PM 38.8 °F 30.0 °F 28.8 °F 67% 29.80 in 10.0 mi SSW 16.1 mph - N/A   Clear
7:55 PM 39.0 °F 29.9 °F 28.8 °F 67% 29.80 in 10.0 mi SSW 17.3 mph 20.7 mph N/A   Clear
8:15 PM 39.2 °F 30.2 °F 28.8 °F 66% 29.80 in 10.0 mi SSW 17.3 mph - N/A   Clear
8:35 PM 39.6 °F 31.0 °F 28.8 °F 65% 29.80 in 10.0 mi SSW 16.1 mph - N/A   Clear
8:55 PM 39.7 °F 30.6 °F 28.9 °F 65% 29.80 in 10.0 mi SSW 18.4 mph 24.2 mph N/A   Clear
9:15 PM 40.1 °F 31.3 °F 29.1 °F 65% 29.80 in 10.0 mi SSW 17.3 mph 24.2 mph N/A   Clear
9:35 PM 40.5 °F 31.2 °F 29.3 °F 64% 29.80 in 10.0 mi SSW 19.6 mph 25.3 mph N/A   Clear
9:55 PM 40.5 °F 31.8 °F 29.5 °F 65% 29.80 in 10.0 mi SSW 17.3 mph 24.2 mph N/A   Clear
10:15 PM 40.8 °F 31.7 °F 29.7 °F 64% 29.79 in 10.0 mi SSW 19.6 mph 25.3 mph N/A   Clear
10:35 PM 40.8 °F 32.0 °F 29.7 °F 64% 29.79 in 10.0 mi SSW 18.4 mph 26.5 mph N/A   Clear
10:55 PM 40.6 °F 32.3 °F 29.5 °F 64% 29.79 in 10.0 mi SSW 16.1 mph 20.7 mph N/A   Clear
11:15 PM 41.4 °F 33.3 °F 29.1 °F 62% 29.78 in 10.0 mi SSW 16.1 mph 23.0 mph N/A   Clear
11:35 PM 41.9 °F 34.0 °F 28.4 °F 59% 29.77 in 10.0 mi SW 16.1 mph 25.3 mph N/A   Clear
11:55 PM 42.6 °F 34.9 °F 28.2 °F 57% 29.77 in 10.0 mi SW 16.1 mph 23.0 mph N/A   Clear